Location: Hillern
(53.0557°N, 9.8577°E)
Time: 01:57:29
(UTC+00:00)

Meteor 2-10 - Pass Details

Date: 19 May 2025
Orbit: 736 x 866 km, 81.2° (Epoch: 23 June)

Event Time Altitude Azimuth Distance (km) Brightness Sun altitude
Rises 21:00:58 0° 345° (NNW) 3,461 9.0 -11.3°
Reaches altitude 10° 21:03:25 10° 345° (NNW) 2,513 8.0 -11.5°
Maximum altitude 21:09:09 79° 260° (W) 872 4.3 -11.9°
Enters shadow 21:14:00 14° 175° (S) 2,173 5.8 -12.3°
